www.pogodaiklimat.ru

Погода и климат >> Архив погоды >> Великобритания >> Уэйнфлит


ПОГОДА в Уэйнфлите

  • Прогноз погоды в Уэйнфлите
  • Монитор погоды в Уэйнфлите

АРХИВ ПОГОДЫ в Уэйнфлите

Время (UTC), дата Ветер
(напр.,м/с)
 
Видим.   Явления Облачность Т
(С)
Тd
(С)
f
(%)
Тe
(С)
Тes
(С)
Комфортность P
(гПа)
Po
(гПа)
Тmin
(С)
Tmax
(С)
R
(мм)
R24
(мм)
S
(см)
10 17.06 Ю 9
{13}
50 км н/о +17.8 +13.0 73 +17 +17 1016.4 1016.0
11 17.06 Ю 9
{13}
70 км н/о +17.7 +12.7 73 +17 +17 1016.2 1015.9
12 17.06 Ю 9 60 км н/о +17.8 +12.6 72 +17 +17 1016.1 1015.8
13 17.06 Ю 8 60 км н/о +18.1 +12.5 70 +17 +17 1016.1 1015.7
14 17.06 ЮЗ 7 23 км н/о +19.2 +13.3 69 +20 +20 1015.7 1015.3
15 17.06 Ю 9 50 км н/о +19.7 +12.2 62 +20 +20 1015.4 1015.0
16 17.06 Ю 9 50 км н/о +19.4 +12.4 64 +20 +20 1015.0 1014.6
17 17.06 Ю 7 50 км н/о +19.5 +12.8 65 +20 +20 1014.7 1014.4
18 17.06 ЮЗ 7 55 км н/о +18.9 +11.9 64 +19 +19 1014.8 1014.4 +20.4
19 17.06 ЮЗ 6 55 км н/о +17.8 +11.8 68 +17 +17 1014.7 1014.3
20 17.06 ЮЗ 4 50 км н/о +16.1 +12.3 78 +15 +15 1014.9 1014.5
21 17.06 ЮЗ 4 50 км н/о +14.5 +11.7 83 +13 +13 1015.2 1014.9
22 17.06 ЮЗ 3 30 км н/о +13.0 +11.6 91 +12 +12 1015.3 1015.0
23 17.06 ЮЗ 4 35 км н/о +13.5 +12.2 92 +12 +12 1015.4 1015.1
00 18.06 ЮЗ 3 30 км н/о +13.1 +11.8 92 +12 +12 1015.0 1014.7
01 18.06 ЮЗ 3 26 км н/о +12.1 +11.2 94 +11 +11 1014.9 1014.6
02 18.06 ЮЗ 3 16 км н/о +10.8 +10.0 95 +9 +9 1014.9 1014.5
03 18.06 ЮЗ 3 14 км н/о +10.2 +9.7 97 +8 +8 1014.8 1014.4
04 18.06 ЮЗ 3 15 км н/о +10.9 +10.6 98 +9 +9 1014.8 1014.5
05 18.06 ЮЗ 3 18 км н/о +11.6 +11.3 98 +10 +10 1014.6 1014.3
06 18.06 ЮЗ 3 23 км н/о +13.7 +12.9 95 +13 +13 1014.8 1014.4 +10.2
07 18.06 ЮЗ 2 15 км н/о +14.7 +12.4 86 +14 +14 1015.0 1014.6
08 18.06 ЮЗ 3 30 км н/о +15.8 +13.1 84 +15 +15 1014.8 1014.5
09 18.06 ЮЗ 3 27 км н/о +16.2 +12.2 77 +16 +16 1014.6 1014.3
10 18.06 Ю 4 40 км н/о +17.6 +13.2 75 +17 +17 1014.5 1014.1
11 18.06 Ю 5 55 км н/о +18.4 +13.7 74 +19 +19 1014.4 1014.1
12 18.06 Ю 4 55 км н/о +18.6 +13.6 73 +19 +19 1014.1 1013.7
13 18.06 Ю 4 35 км н/о +18.2 +12.6 70 +18 +18 1014.0 1013.6
14 18.06 Ю 3 45 км н/о +18.3 +13.3 73 +19 +19 1013.7 1013.4
15 18.06 Ю 4 40 км н/о +18.4 +13.3 72 +19 +19 1013.4 1013.1
16 18.06 ЮВ 3 28 км н/о +16.8 +14.1 84 +17 +17 1013.1 1012.7
17 18.06 В 5 35 км н/о +16.1 +13.5 85 +15 +15 1012.7 1012.3
18 18.06 В 3 15 км н/о +14.8 +13.4 91 +14 +14 1012.4 1012.0 +19.2 0.2
19 18.06 В 4 12 км н/о +14.4 +13.4 94 +13 +13 1012.3 1011.9
20 18.06 В 3 15 км н/о +14.1 +13.2 94 +13 +13 1011.7 1011.4
21 18.06 В 3 10 км н/о +13.8 +13.2 96 +13 +13 1011.9 1011.5
22 18.06 В 2 8000 м н/о +14.2 +13.7 97 +14 +14 1011.7 1011.4
23 18.06 В 3 5000 м н/о +14.3 +13.9 97 +13 +13 1011.1 1010.8
00 19.06 В 4 28 км н/о +13.3 +12.3 94 +11 +11 1010.7 1010.4 4
01 19.06 В 3 5000 м н/о +13.5 +13.0 97 +12 +12 1010.4 1010.0
02 19.06 СВ 2 8000 м н/о +13.2 +12.8 97 +12 +12 1009.7 1009.4
03 19.06 СВ 3 21 км н/о +13.0 +12.5 97 +11 +11 1008.8 1008.4
04 19.06 СВ 2 23 км н/о +13.0 +12.3 96 +12 +12 1008.3 1007.9
05 19.06 СВ 3 21 км н/о +13.2 +12.5 96 +12 +12 1007.9 1007.6
06 19.06 СВ 3 24 км н/о +13.3 +12.7 96 +12 +12 1007.2 1006.9 +13.0 6
07 19.06 СВ 3 29 км н/о +13.9 +12.8 93 +13 +13 1007.1 1006.8
08 19.06 СВ 3 28 км н/о +15.4 +13.7 90 +15 +15 1007.5 1007.2
09 19.06 СВ 1 29 км н/о +15.9 +13.7 87 +17 +17 1007.4 1007.1
10 19.06 СВ 2 30 км н/о +16.9 +13.5 80 +17 +17 1007.3 1006.9
11 19.06 СЗ 1 10 км н/о +17.7 +13.8 78 +19 +19 1007.2 1006.8
12 19.06 ЮВ 3 30 км н/о +17.0 +14.9 87 +17 +17 1007.2 1006.8
13 19.06 В 2 27 км н/о +17.1 +13.6 80 +17 +17 1007.2 1006.8
14 19.06 В 2 30 км н/о +16.7 +14.6 87 +17 +17 1007.0 1006.7
15 19.06 С 2 30 км н/о +16.7 +15.2 91 +17 +17 1007.1 1006.8
16 19.06 СВ 2 20 км н/о +17.3 +15.5 89 +18 +18 1006.8 1006.4
17 19.06 ЮВ 3 24 км н/о +16.7 +15.0 90 +17 +17 1006.7 1006.4
18 19.06 В 3 26 км н/о +16.0 +14.1 88 +16 +16 1006.8 1006.5 +19.2 0.6
19 19.06 ЮВ 3 30 км н/о +15.3 +14.0 92 +15 +15 1007.3 1006.9
20 19.06 ЮВ 3 22 км н/о +14.8 +13.6 93 +14 +14 1007.7 1007.3
21 19.06 В 2 13 км н/о +14.4 +13.6 95 +14 +14 1007.9 1007.5
22 19.06 Ю 2 9000 м н/о +14.4 +13.8 96 +14 +14 1008.0 1007.6
23 19.06 СЗ 3 11 км н/о +14.8 +14.3 97 +14 +14 1008.2 1007.9
00 20.06 С 1 14 км н/о +14.2 +13.5 96 +14 +14 1008.2 1007.8
01 20.06 З 2 9000 м н/о +14.2 +13.7 97 +14 +14 1008.4 1008.1
02 20.06 СЗ 3 35 км н/о +13.6 +12.5 93 +13 +13 1008.5 1008.1
03 20.06 З 2 28 км н/о +13.0 +11.6 91 +12 +12 1008.5 1008.1
04 20.06 З 2 14 км н/о +12.9 +12.0 94 +12 +12 1008.7 1008.3
05 20.06 ЮЗ 2 17 км н/о +12.9 +12.0 94 +12 +12 1008.8 1008.4
06 20.06 З 4 22 км н/о +13.3 +11.1 87 +12 +12 1009.2 1008.8 +12.5
07 20.06 З 5 35 км н/о +14.2 +11.5 84 +13 +13 1009.5 1009.2
08 20.06 З 4 40 км н/о +15.4 +11.9 80 +14 +14 1009.6 1009.3
09 20.06 З 5 45 км н/о +16.1 +11.7 75 +15 +15 1009.9 1009.6
10 20.06 З 5 24 км н/о +17.4 +12.1 71 +17 +17 1010.2 1009.8
11 20.06 З 5 55 км н/о +16.6 +11.2 70 +16 +16 1010.5 1010.1
12 20.06 З 5 25 км н/о +17.4 +12.4 72 +17 +17 1010.8 1010.5
13 20.06 З 6 50 км н/о +16.8 +10.8 68 +16 +16 1011.1 1010.7
14 20.06 СЗ 5 50 км н/о +14.9 +10.1 73 +13 +13 1011.5 1011.1
15 20.06 З 5 55 км н/о +16.6 +9.5 63 +16 +16 1011.6 1011.3
16 20.06 З 7 45 км н/о +17.4 +10.0 62 +17 +17 1011.8 1011.4
17 20.06 З 5 55 км н/о +17.5 +10.4 63 +17 +17 1011.9 1011.5
18 20.06 З 4 50 км н/о +17.2 +10.0 63 +17 +17 1012.1 1011.8 +18.4
19 20.06 З 4 45 км н/о +16.3 +9.1 62 +16 +16 1012.5 1012.2
20 20.06 ЮЗ 1 55 км н/о +14.4 +11.2 81 +15 +15 1012.9 1012.6
21 20.06 З 2 60 км н/о +14.5 +9.7 73 +14 +14 1013.3 1012.9
22 20.06 З 1 40 км н/о +11.9 +10.1 89 +13 +13 1013.7 1013.3
23 20.06 З 2 45 км н/о +12.2 +10.3 88 +12 +12 1014.2 1013.8
00 21.06 З 2 27 км н/о +10.8 +9.3 90 +10 +10 1014.4 1014.0
01 21.06 СЗ 2 24 км н/о +8.8 +7.7 93 +7 +7 1014.7 1014.3
02 21.06 З 2 20 км н/о +9.1 +8.5 96 +7 +7 1015.1 1014.8
03 21.06 З 3 22 км н/о +8.1 +7.4 95 +6 +6 1015.4 1015.0
04 21.06 ЮЗ 4 23 км н/о +7.7 +7.0 95 +4 +4 1015.6 1015.3
05 21.06 З 2 35 км н/о +8.8 +8.1 95 +7 +7 1016.0 1015.6
06 21.06 З 4 40 км н/о +10.2 +9.0 92 +8 +8 1016.4 1016.0 +7.7
07 21.06 З 5 40 км н/о +12.1 +9.4 84 +10 +10 1016.9 1016.5
08 21.06 З 4 40 км н/о +14.4 +10.9 79 +13 +13 1017.4 1017.1
09 21.06 З 5 50 км н/о +16.1 +9.7 66 +15 +15 1017.8 1017.4
10 21.06 З 5 45 км н/о +16.9 +9.2 60 +16 +16 1018.0 1017.6
11 21.06 З 5 45 км н/о +17.7 +9.5 59 +17 +17 1018.3 1017.9
12 21.06 ЮЗ 3 45 км н/о +18.0 +9.8 59 +18 +18 1018.5 1018.1
13 21.06 З 5 45 км н/о +18.8 +8.7 52 +19 +19 1018.8 1018.5
14 21.06 СЗ 4 45 км н/о +18.3 +9.3 56 +19 +19 1019.3 1018.9
15 21.06 З 5 40 км н/о +17.6 +8.0 53 +17 +17 1019.5 1019.2
16 21.06 СЗ 4 40 км н/о +19.3 +9.9 54 +20 +20 1019.8 1019.4
17 21.06 СЗ 3 40 км н/о +18.8 +8.9 53 +20 +20 1020.1 1019.8
18 21.06 З 2 45 км н/о +17.5 +10.8 65 +18 +18 1020.4 1020.1 +19.6
19 21.06 З 2 50 км н/о +17.0 +10.9 67 +18 +18 1020.7 1020.3
20 21.06 В 2 35 км н/о +15.0 +12.9 87 +15 +15 1021.1 1020.8
21 21.06 В 3 35 км н/о +13.5 +12.0 91 +12 +12 1021.6 1021.2
22 21.06 ЮВ 4 45 км н/о +13.8 +11.8 88 +12 +12 1021.7 1021.4
23 21.06 ЮВ 4 55 км н/о +12.8 +10.5 86 +11 +11 1022.0 1021.6
00 22.06 ЮВ 3 55 км н/о +12.0 +10.3 89 +10 +10 1022.2 1021.8
01 22.06 ЮВ 3 50 км н/о +11.9 +10.0 88 +10 +10 1022.2 1021.8
02 22.06 СВ 2 27 км н/о +9.6 +8.4 92 +8 +8 1022.3 1021.9
03 22.06 С 2 17 км н/о +9.5 +8.8 95 +8 +8 1022.2 1021.8
04 22.06 С 2 12 км н/о +10.6 +10.1 97 +9 +9 1022.2 1021.8
05 22.06 В 3 16 км н/о +12.7 +12.5 99 +11 +11 1022.1 1021.7
06 22.06 ЮВ 2 15 км н/о +14.3 +14.1 99 +14 +14 1022.0 1021.7 +8.9
07 22.06 ЮВ 2 17 км н/о +15.2 +14.3 94 +15 +15 1022.1 1021.8
08 22.06 ЮВ 3 29 км н/о +15.7 +13.9 89 +15 +15 1022.3 1022.0
09 22.06 ЮВ 4 29 км н/о +17.8 +15.1 84 +18 +18 1022.5 1022.1
10 22.06 ЮВ 4 28 км н/о +18.5 +15.9 85 +19 +19 1022.3 1021.9
11 22.06 ЮВ 5 29 км н/о +18.8 +15.3 80 +20 +20 1022.2 1021.9
12 22.06 ЮВ 4 40 км н/о +19.4 +14.3 72 +21 +21 комфорт 1022.2 1021.8
13 22.06 В 5 40 км н/о +19.5 +14.3 72 +21 +21 комфорт 1021.8 1021.4
14 22.06 В 6 50 км н/о +19.3 +13.8 70 +20 +20 1021.4 1021.1
15 22.06 В 6 40 км н/о +19.0 +14.9 77 +20 +20 1021.2 1020.9
16 22.06 В 7 35 км н/о +18.2 +13.9 76 +18 +18 1021.0 1020.6
17 22.06 В 8 35 км н/о +17.7 +12.9 73 +17 +17 1020.6 1020.3
18 22.06 В 8 40 км н/о +17.1 +13.0 77 +16 +16 1020.6 1020.2 +19.9
19 22.06 В 7 35 км н/о +15.9 +12.4 80 +14 +14 1020.8 1020.4
20 22.06 В 6 35 км н/о +14.9 +12.5 86 +13 +13 1020.8 1020.5
21 22.06 В 5 35 км н/о +14.2 +12.5 90 +12 +12 1021.6 1021.2
22 22.06 В 6 55 км н/о +13.6 +10.7 83 +11 +11 1021.8 1021.4
23 22.06 ЮВ 5 55 км н/о +13.1 +10.7 85 +11 +11 1021.6 1021.3
00 23.06 В 4 45 км н/о +12.3 +10.6 89 +10 +10 1021.5 1021.1
01 23.06 В 3 45 км н/о +11.7 +10.1 90 +10 +10 1021.3 1020.9
02 23.06 В 3 30 км н/о +11.2 +10.3 94 +9 +9 1020.9 1020.5
03 23.06 В 4 26 км н/о +11.7 +10.9 95 +9 +9 1020.8 1020.5
04 23.06 В 3 28 км н/о +11.6 +10.7 94 +10 +10 1020.6 1020.2
05 23.06 В 4 30 км н/о +13.0 +12.1 94 +11 +11 1020.3 1019.9
06 23.06 В 5 35 км н/о +14.1 +12.4 89 +12 +12 1020.1 1019.7 +11.1
07 23.06 В 6 40 км н/о +15.1 +12.8 86 +14 +14 1020.4 1020.0
08 23.06 В 6 45 км н/о +15.4 +13.2 87 +14 +14 1020.5 1020.1
09 23.06 В 7 35 км н/о +16.7 +14.3 86 +15 +15 1020.3 1020.0
10 23.06 В 6 30 км н/о +16.5 +14.1 86 +15 +15 1020.2 1019.9
11 23.06 СВ 6 30 км н/о +17.7 +15.4 86 +17 +17 1020.0 1019.7
12 23.06 СВ 6 29 км н/о +17.3 +14.9 86 +16 +16 1019.7 1019.3
13 23.06 В 6 26 км н/о +17.6 +14.7 83 +17 +17 1019.2 1018.9
14 23.06 СВ 6 23 км н/о +17.4 +14.9 85 +17 +17 1018.9 1018.6
15 23.06 СВ 6 24 км н/о +16.8 +14.6 87 +16 +16 1018.8 1018.4
16 23.06 СВ 6 23 км н/о +16.1 +14.5 90 +15 +15 1018.1 1017.8
17 23.06 СВ 5 24 км н/о +16.0 +14.1 88 +15 +15 1017.9 1017.5
18 23.06 СВ 5 19 км н/о +15.4 +14.0 91 +14 +14 1017.9 1017.5 +18.3
19 23.06 СВ 5 16 км н/о +15.4 +14.1 92 +14 +14 1017.3 1016.9
20 23.06 СВ 4 13 км н/о +15.1 +14.1 94 +14 +14 1017.6 1017.3
21 23.06 СВ 4 10 км н/о +15.1 +14.2 94 +14 +14 1017.4 1017.1
22 23.06 СВ 4 7000 м н/о +15.0 +14.4 96 +14 +14 1016.9 1016.6
23 23.06 СВ 4 6000 м н/о +15.0 +14.6 97 +14 +14 1016.4 1016.1
00 24.06 С 4 5000 м н/о +14.8 +14.4 97 +13 +13 1015.9 1015.5
01 24.06 СВ 4 5000 м н/о +14.9 +14.5 97 +14 +14 1015.4 1015.0
02 24.06 С 3 6000 м н/о +15.2 +14.9 98 +15 +15 1015.0 1014.7
03 24.06 С 3 3500 м н/о +14.4 +14.1 98 +14 +14 1014.6 1014.3
04 24.06 С 3 3700 м н/о +14.1 +13.8 98 +13 +13 1014.3 1013.9
05 24.06 С 3 4800 м н/о +14.4 +14.2 99 +13 +13 1014.3 1014.0
06 24.06 С 4 6000 м н/о +14.9 +14.6 98 +14 +14 1014.9 1014.5 +14.1 0.4
07 24.06 С 3 10 км н/о +16.9 +16.2 96 +17 +17 1014.8 1014.4
08 24.06 С 2 14 км н/о +19.9 +17.6 87 +23 +23 комфорт 1015.0 1014.7

 

Местоположение метеостанции Уэйнфлит (Великобритания): широта 53.08 долгота 0.27 высота над уровнем моря 5 м.

В архиве по умолчанию представлена погода в Уэйнфлите за последнюю неделю. Архивные данные за месяц целиком и за предыдущие месяцы, начиная с января 2011 года, Вы можете получить, выбрав интересующий диапазон дат из раскрывающегося списка и нажав кнопку "Ввод!".


*Определитесь, кто Вы:
робот инопланетянин человек

Внимание! Время в таблицах - всемирное. Для получения местного времени необходимо прибавить поправку, которая равна 0 ч.

Смотрите также архив погоды в соседних городах и на ближайших метеорологических станциях:

Погода в Холбиче (Великобритания) (25 км)
Погода на Авиабазе Coningsby (Великобритания) (29 км)
Погода в Донна Нук (Великобритания) (46 км)
Погода в Крануэлле (Великобритания) (52 км)
Погода в Мархеме (Великобритания) (52 км)
Погода в Уоддингтоне (Великобритания) (54 км)
Погода в Уэйборне (Великобритания) (59 км)
Погода в Скемптоне (Великобритания) (60 км)
Погода в Виттеринге (Великобритания) (71 км)
Погода в Леконфилде (Великобритания) (99 км)

Пояснения к столбцам:

Ветер - указаны скорость ветра в м/с - средняя за 10 мин, порывы в срок и между сроками (в фигурных скобках) и направление, откуда дует ветер: С - северный, СВ - северо-восточный, В - восточный, ЮВ - юго-восточный, Ю - южный, ЮЗ - юго-западный, З - западный, СЗ - северо-западный.
Видимость - горизонтальная дальность видимости в метрах или километрах. При видимости от 1 до 10 км при отсутствии осадков обычно наблюдается дымка, при ухудшении видимости до 1 км и менее - туман. В сухую погоду видимость может ухудшаться дымом, пылью или мглою.
Явления - указаны атмосферные явления, наблюдавшиеся в срок или в последний час перед сроком; фигурными скобками обозначены явления, наблюдавшиеся между сроками (за 1-3 часа до срока); квадратными скобками обозначены град или гололедные отложения с указанием их диаметра в мм.
Облачность - указаны через наклонную черту общая и нижняя облачность в баллах и высота нижней границы облаков в метрах; квадратными скобками обозначены формы облаков: Ci - перистые, Cs - перисто-слоистые, Cc - перисто-кучевые, Ac - высококучевые, As - высокослоистые, Sc - слоисто-кучевые, Ns - слоисто-дождевые, Cu - кучевые, Cb - кучево-дождевые. Подробнее классификацию облаков см. в Атласе облаков (PDF).
T - Температура воздуха - температура, измеренная на высоте 2 м над землей.
Td - Температура точки росы - температура, при понижении до которой содержащийся в воздухе водяной пар достигнет насыщения.
f - Относительная влажность воздуха - влажноcть воздуха, измеренная на высоте 2 м над землей.
Te - Эффективная температура - температура, которую ощущает одетый по сезону человек в тени. Характеристика душности погоды. При расчете учитывается влияние влажности воздуха и скорости ветра на теплоощущения человека.
Tes - Эффективная температура на солнце - температура, которую ощущает человек, с поправкой на солнечный нагрев. Характеристика знойности погоды. Зависит от высоты солнца над горизонтом, облачности и скорости ветра. Ночью, в пасмурную погоду, а также при ветре 12 м/с и более поправка равна нулю.
P - Атмосферное давление - приведенное к уровню моря атмосферное давление.
Po - Атмосферное давление - измеренное на уровне метеостанции атмосферное давление.
Tmin - Минимальная температура - минимум температуры воздуха на высоте 2 м над землей.
Tmax - Максимальная температура - максимум температуры воздуха на высоте 2 м над землей.
R - Количество осадков - Количество выпавших осадков за период времени, мм. При наведении курсора мыши на число - период времени, за который выпало указанное количество осадков.
R24 - Количество осадков - Количество выпавших осадков за 24 часа, мм.
S - Снежный покров - Высота снежного покрова, см. При наведении курсора мыши на число - состояние снежного покрова и степень покрытия местности в баллах.